Regional Weather Roundup
Issued by NWS

Home | Current Version | Previous Version | Text Only | Print | Product List | Glossary Off
Versions: 1 2 3 4 5 6 7 8 9 10 11 12 13 14 15 16 17 18 19 20 21 22 23 24 25 26 27 28 29 30 31 32 33 34 35 36 37 38 39 40 41 42 43 44 45 46 47 48 49 50

000
ASUS43 KLOT 012012
RWRIL

ILLINOIS REGIONAL WEATHER ROUNDUP
NATIONAL WEATHER SERVICE CHICAGO/ROMEOVILLE IL
300 PM CDT TUE SEP 01 2015

NOTE: "FAIR" INDICATES FEW OR NO CLOUDS BELOW 12,000 FEET WITH NO
SIGNIFICANT WEATHER AND/OR OBSTRUCTIONS TO VISIBILITY.

* THESE STATIONS ARE NOT UNDER NWS QUALITY CONTROL. THEY ALSO MAY NOT
  REPORT WEATHER SUCH AS PRECIPITATION OR FOG.

ILZ001-002-007-009-015-016-024-012100-
NORTHWEST ILLINOIS

CITY           SKY/WX    TMP DP  RH WIND       PRES   REMARKS
MOLINE         SUNNY     91  71  51 SW9       29.98F HX  97
STERLING*      MOSUNNY   91  72  52 W12       29.97F HX  98
SAVANNA*       SUNNY     90  69  48 S10       29.98F HX  94
$$

ILZ003-004-008-010-011-017-018-012100-
NORTH CENTRAL ILLINOIS

CITY           SKY/WX    TMP DP  RH WIND       PRES   REMARKS
ROCKFORD       MOSUNNY   89  70  53 SW14      30.00F HX  94
FREEPORT*      SUNNY     87  73  63 S12       30.01F HX  94
ROCHELLE*      MOSUNNY   87  73  61 SW6       30.01F HX  94
DE KALB*       MOSUNNY   89  72  58 SW12      30.02F HX  95
PERU*          MOSUNNY   91  67  44 W10       30.01F HX  94
$$

ILZ005-006-012>014-019>023-012100-
NORTHEAST ILLINOIS

CITY           SKY/WX    TMP DP  RH WIND       PRES   REMARKS
CHICAGO-OHARE  PTSUNNY   88  72  58 SW7G18    30.00F HX  94
CHICAGO-MIDWAY MOSUNNY   88  71  57 SW12      30.01F HX  94
AURORA         MOSUNNY   87  75  67 S9        30.02F HX  96
LANSING*       SUNNY     85  71  62 SW9       30.03F HX  90
JOLIET*        SUNNY     88  73  61 S9        30.02F HX  95
WAUKEGAN       MOSUNNY   88  69  53 SW10      29.98F HX  92
DUPAGE AIRPORT MOSUNNY   87  73  62 S13       30.01F HX  94
KANKAKEE*      SUNNY     86  74  66 SW7       30.04F HX  94
WHEELING       MOSUNNY   91  67  44 SW12      30.00F HX  94
MORRIS*        SUNNY     86  75  70 SW10      30.01F HX  95
ROMEOVILLE*    SUNNY     86  72  64 S9        30.02F HX  92
NORTHERLY ISL    N/A     86  69  56 S13         N/A  HX  90
$$

LMZ740>746-012100-
SOUTHERN LAKE MICHIGAN

STATION/POSITION SKY/WX   TEMP    WIND        PRES    VSBY  WAVE
                          AIR SEA DIR/SP/G                  HT/PER
                          (F)     (DEG/KT/KT) (MB)    (MI)  (FT/S)
SOUTHERN BUOY              73 70  170/ 12/ 14 1015.5F         1/ 3
WILMETTE HARBOR            69 61  300/  4/  8   N/A           1/ 3
HARRISON CRIB              78     180/ 17/ 20   N/A
BURNHAM HARBOR             85     180/ 12/ 14   N/A
CALUMET HARBOR             83     210/  7/ 14   N/A
BURNS HARBOR               81     240/ 12/ 15 1017.6F
MICHIGAN CITY              79     200/ 12/ 13   N/A
MICHIGAN CITY 6N           77 73  210/  4/  6   N/A           1/ 3
ST. JOSEPH                 75 73  280/  6/  6   N/A           1/ 3
$$

ILZ025>027-034>036-040-047-049-050-058-095>099-012100-
WEST-CENTRAL ILLINOIS

CITY           SKY/WX    TMP DP  RH WIND       PRES   REMARKS
QUINCY         MOSUNNY   89  67  47 SE6       30.03S HX  92
GALESBURG*     MOSUNNY   89  69  52 SW10      30.02S HX  94
MACOMB*        SUNNY     92  67  42 S7        30.04S HX  95
JACKSONVILLE*  PTSUNNY   92  70  48 S8        30.03F HX  98
PITTSFIELD*    MOSUNNY   91  68  47 S7        30.05F HX  95
$$

ILZ028>032-037-038-041>044-048-051>054-059>061-012100-
CENTRAL ILLINOIS

CITY           SKY/WX    TMP DP  RH WIND       PRES   REMARKS
PONTIAC        SUNNY     87  76  68 S9        30.04F HX  97
BLOOMINGTON    MOSUNNY   90  75  61 SE13      30.05F HX 100
DECATUR        MOSUNNY   89  70  53 S9        30.05F HX  94
PEORIA         SUNNY     95  64  35 W13       30.02F HX  97
LACON*         SUNNY     89  69  50 S9        30.00F HX  93
LINCOLN*       MOSUNNY   92  66  42 SW5       30.01F HX  95
SPRINGFIELD    SUNNY     92  70  48 S10       30.03F HX  97
TAYLORVILLE    MOSUNNY   90  68  48 S8G16     30.05S HX  93
$$

ILZ033-039-045-046-055>057-062-063-012100-
EAST-CENTRAL ILLINOIS

CITY           SKY/WX    TMP DP  RH WIND       PRES   REMARKS
CHAMPAIGN      PTSUNNY   87  71  58 S7        30.08S HX  93
RANTOUL*       PTSUNNY   84  74  71 SW8       30.07F HX  91
MATTOON        MOSUNNY   87  69  54 S9        30.07F HX  91
PARIS*         PTSUNNY   84  71  65 S9        30.10S HX  89
$$

ILZ079-100>102-012100-
SOUTHWEST ILLINOIS

CITY           SKY/WX    TMP DP  RH WIND       PRES   REMARKS
ALTON          SUNNY     90  70  51 S9        30.06F HX  95
BELLEVILLE     MOSUNNY   91  73  56 SE8       30.05F HX  99
CAHOKIA*       MOSUNNY   90  69  50 S10       30.05F HX  94
SPARTA*        MOSUNNY   87  71  57 SE8       30.09S HX  93
$$

ILZ064>066-069>071-074>076-080>082-084>086-088>090-092>094-012100-
SOUTH-CENTRAL ILLINOIS

CITY           SKY/WX    TMP DP  RH WIND       PRES   REMARKS
CARBONDALE     NOT AVBL
CAIRO*         SUNNY     87  72  60 S6        30.09F HX  93
EFFINGHAM*     MOSUNNY   88  65  46 S7        30.08F HX  89
MARION         MOSUNNY   90  70  51 S8        30.10F HX  95
MT. VERNON     SUNNY     91  70  49 S8        30.09S HX  97
CENTRALIA*     SUNNY     90  71  53 S6        30.07F HX  96
SALEM*         PTSUNNY   89  68  49 SW8       30.08S HX  93
METROPOLIS*    SUNNY     88  71  55 SE5       30.09F HX  94
$$

ILZ067-068-072-073-078-083-087-091-012100-
SOUTHEAST ILLINOIS

CITY           SKY/WX    TMP DP  RH WIND       PRES   REMARKS
LAWRENCEVILLE  MOSUNNY   89  68  49 SW7       30.09F HX  93
FLORA*         SUNNY     88  66  47 S7        30.08F HX  90
FAIRFIELD*     MOSUNNY   89  69  51 S9        30.07F HX  93
HARRISBURG*    MOSUNNY   89  69  50 S6        30.09S HX  93
ROBINSON*      MOSUNNY   86  68  54 S3        30.10S HX  90
CARMI*         SUNNY     88  70  56 S6        30.08F HX  93
$$

ABBREVIATIONS USED IN REMARKS
   TC - TEMPERATURE IN CELSIUS
  WCI - WIND CHILL INDEX
   HX - HEAT INDEX
  VSB - VISIBILITY
$$



USA.gov is the U.S. government's official web portal to all federal, state and local government web resources and services.